Starlink 3313

operational
NORAD ID: 50157 Int'l Des: 2021-125 Owner: SPXS Country: US Constellation: starlink
LEOCIRCULAR

About Starlink 3313

Description loading...

Live Position

Loading 3D Globe...

Upcoming Passes

Altitude History

Altitude vs Time

uPlot chart will show altitude changes over time

Two-Line Element Set

1 50157U 21125B 25259.25002315 .00441839 00000-0 35439-2 0 9995
2 50157 53.2168 306.1582 0000991 65.2251 312.8665 15.69136470 5963
Epoch: Sep 16, 2025 • Age: 7 hours

Current Status

Altitude 365.0 km
Velocity 7.69 km/s
Sub-Earth Point -16.25°S, 94.15°E
Launch Date Dec 18, 2021
Age 3.7 years
Type internet

Technical Details

Classification Payload
Mass 290.00 kg
Dry Mass 270.00 kg
Total Mass 290.00 kg
Length 0.20 m
Diameter 2.80 m
Span 9.00 m
Shape Box + pan
Manufacturer SPXS
Bus Type Starlink
Phase Status In Orbit
Owner/State SPXS/US

Large Constellations

Loading constellations...